This demonstration page uses our WeatherBlox Daily Observations layout. Learn more.

Left ArrowRight Arrow

40.92501, -98.34201

Hourly Observations for June 17, 2020

Temp ( °F °C ) Dew Point ( °F °C ) Humidity (%) Winds ( mph kmh ) Pressure ( in mb ) Visibility ( mi km ) Precip ( " mm )
12:53 am 00:53 Clear 78 25.6 59 15 52 52 SSE 22 35 29.88 1012 10 16 0.00 0.00
1:53 am 01:53 Clear 77 25 60 15.6 56 56 SSE 22 35 29.88 1012 10 16 0.00 0.00
2:53 am 02:53 Clear 75 23.9 60 15.6 60 60 S 18 30 29.88 1012 10 16 0.00 0.00
3:53 am 03:53 Clear 74 23.3 60 15.6 62 62 SSE 14 22 29.88 1012 10 16 0.00 0.00
4:53 am 04:53 Clear 72 22.2 61 16.1 68 68 SSE 16 26 29.87 1012 10 16 0.00 0.00
5:53 am 05:53 Clear 71 21.7 61 16.1 71 71 SSE 18 30 29.87 1012 10 16 0.00 0.00
6:53 am 06:53 Sunny 72 22.2 61 16.1 68 68 SSE 18 30 29.87 1011 10 16 0.00 0.00
7:53 am 07:53 Sunny 74 23.3 62 16.7 67 67 SSE 21 33 29.86 1011 10 16 0.00 0.00
8:53 am 08:53 Sunny 79 26.1 63 17.2 58 58 S 20 31 29.85 1011 10 16 0.00 0.00
9:53 am 09:53 Sunny 83 28.3 63 17.2 51 51 S 22 35 29.85 1011 10 16 0.00 0.00
10:53 am 10:53 Sunny 86 30 64 17.8 48 48 S 20 31 29.84 1011 10 16 0.00 0.00
11:53 am 11:53 Sunny 89 31.7 64 17.8 43 43 S 28 44 29.83 1010 10 16 0.00 0.00
12:53 pm 12:53 Sunny 92 33.3 64 17.8 40 40 S 25 41 29.81 1009 10 16 0.00 0.00
1:53 pm 13:53 Sunny 94 34.4 63 17.2 36 36 SSE 30 48 29.78 1009 10 16 0.00 0.00
2:53 pm 14:53 Sunny 95 35 62 16.7 34 34 SSE 29 46 29.77 1008 10 16 0.00 0.00
3:53 pm 15:53 Sunny 97 36.1 61 16.1 30 30 SSE 25 41 29.75 1008 10 16 0.00 0.00
4:53 pm 16:53 Mostly Sunny 95 35 62 16.7 34 34 SSE 23 37 29.74 1007 10 16 0.00 0.00
5:53 pm 17:53 Sunny 94 34.4 62 16.7 35 35 SSE 25 41 29.74 1007 10 16 0.00 0.00
6:53 pm 18:53 Mostly Sunny 93 33.9 62 16.7 36 36 S 24 39 29.74 1007 10 16 0.00 0.00
7:53 pm 19:53 Sunny 90 32.2 61 16.1 38 38 SSE 21 33 29.75 1008 10 16 0.00 0.00
8:53 pm 20:53 Sunny 87 30.6 61 16.1 42 42 SSE 18 30 29.75 1007 10 16 0.00 0.00
9:53 pm 21:53 Clear 84 28.9 62 16.7 48 48 SSE 20 31 29.74 1007 10 16 0.00 0.00
10:53 pm 22:53 Clear 83 28.3 62 16.7 49 49 SSE 22 35 29.76 1008 10 16 0.00 0.00
11:53 pm 23:53 Clear 81 27.2 61 16.1 51 51 SSE 21 33 29.76 1008 10 16 0.00 0.00

Powered by AerisWeather